Time,TemperatureF,DewpointF,PressureIn,WindDirection,WindDirectionDegrees,WindSpeedMPH,WindSpeedGustMPH,Humidity,HourlyPrecipIn,Conditions,Clouds,dailyrainin,SoftwareType,DateUTC
2013-07-17 00:02:00,75.2,69.0,30.08,ENE,60,2.0,-999.0,81,-99.99,,,0.00,weatherlink.com 1.10,2013-07-17 04:02:00,
2013-07-17 00:17:00,75.3,69.0,30.08,ENE,67,1.0,-999.0,81,-99.99,,,0.00,weatherlink.com 1.10,2013-07-17 04:17:00,
2013-07-17 00:33:00,75.1,69.0,30.08,ENE,64,3.0,-999.0,81,-99.99,,,0.00,weatherlink.com 1.10,2013-07-17 04:33:00,
2013-07-17 00:48:00,74.9,69.0,30.08,ENE,62,2.0,-999.0,82,-99.99,,,0.00,weatherlink.com 1.10,2013-07-17 04:48:00,
2013-07-17 01:03:00,74.8,69.0,30.08,NE,49,2.0,-999.0,82,-99.99,,,0.00,weatherlink.com 1.10,2013-07-17 05:03:00,
2013-07-17 01:18:00,74.9,69.0,30.08,ENE,66,5.0,-999.0,82,-99.99,,,0.00,weatherlink.com 1.10,2013-07-17 05:18:00,
2013-07-17 01:33:00,74.9,69.0,30.08,ENE,65,3.0,-999.0,82,-99.99,,,0.00,weatherlink.com 1.10,2013-07-17 05:33:00,
2013-07-17 01:48:00,74.9,69.0,30.07,East,83,2.0,-999.0,82,-99.99,,,0.00,weatherlink.com 1.10,2013-07-17 05:48:00,
2013-07-17 02:03:00,74.9,69.0,30.07,ENE,57,1.0,-999.0,82,-99.99,,,0.00,weatherlink.com 1.10,2013-07-17 06:03:00,
2013-07-17 02:18:00,74.8,69.0,30.07,ENE,74,2.0,-999.0,82,-99.99,,,0.00,weatherlink.com 1.10,2013-07-17 06:18:00,
2013-07-17 02:33:00,74.8,69.0,30.06,ENE,71,6.0,-999.0,82,-99.99,,,0.00,weatherlink.com 1.10,2013-07-17 06:33:00,
2013-07-17 02:48:00,74.9,69.0,30.05,NE,52,4.0,-999.0,82,-99.99,,,0.00,weatherlink.com 1.10,2013-07-17 06:48:00,
2013-07-17 03:03:00,75.1,69.0,30.05,ENE,70,4.0,-999.0,82,-99.99,,,0.00,weatherlink.com 1.10,2013-07-17 07:03:00,
2013-07-17 03:18:00,75.0,69.0,30.05,ENE,61,2.0,-999.0,82,-99.99,,,0.00,weatherlink.com 1.10,2013-07-17 07:18:00,
2013-07-17 03:33:00,74.8,69.0,30.05,ENE,64,1.0,-999.0,82,-99.99,,,0.00,weatherlink.com 1.10,2013-07-17 07:33:00,
2013-07-17 03:48:00,74.6,69.0,30.04,ENE,62,0.0,-999.0,83,-99.99,,,0.00,weatherlink.com 1.10,2013-07-17 07:48:00,
2013-07-17 04:03:00,74.5,69.0,30.04,ENE,60,5.0,-999.0,83,-99.99,,,0.00,weatherlink.com 1.10,2013-07-17 08:03:00,
2013-07-17 04:18:00,74.8,69.0,30.04,NE,44,8.0,-999.0,83,-99.99,,,0.00,weatherlink.com 1.10,2013-07-17 08:18:00,
2013-07-17 04:33:00,74.9,69.0,30.04,ENE,68,7.0,-999.0,83,-99.99,,,0.00,weatherlink.com 1.10,2013-07-17 08:33:00,
2013-07-17 04:48:00,74.9,69.0,30.05,ENE,64,5.0,-999.0,83,-99.99,,,0.00,weatherlink.com 1.10,2013-07-17 08:48:00,
2013-07-17 05:03:00,74.9,70.0,30.04,ENE,77,4.0,-999.0,84,-99.99,,,0.00,weatherlink.com 1.10,2013-07-17 09:03:00,
2013-07-17 05:18:00,75.2,70.0,30.05,ENE,70,7.0,-999.0,83,-99.99,,,0.00,weatherlink.com 1.10,2013-07-17 09:18:00,
2013-07-17 05:33:00,75.3,70.0,30.05,ENE,68,4.0,-999.0,83,-99.99,,,0.00,weatherlink.com 1.10,2013-07-17 09:33:00,
2013-07-17 05:48:00,75.3,70.0,30.05,ENE,69,4.0,-999.0,83,-99.99,,,0.00,weatherlink.com 1.10,2013-07-17 09:48:00,
2013-07-17 06:03:00,75.1,70.0,30.05,NE,53,2.0,-999.0,83,-99.99,,,0.00,weatherlink.com 1.10,2013-07-17 10:03:00,
2013-07-17 06:18:00,75.3,70.0,30.05,ENE,63,6.0,-999.0,83,-99.99,,,0.00,weatherlink.com 1.10,2013-07-17 10:18:00,
2013-07-17 06:33:00,75.3,70.0,30.05,East,81,4.0,-999.0,84,-99.99,,,0.00,weatherlink.com 1.10,2013-07-17 10:33:00,
2013-07-17 06:48:00,75.3,70.0,30.05,ENE,69,8.0,-999.0,84,-99.99,,,0.00,weatherlink.com 1.10,2013-07-17 10:48:00,
2013-07-17 07:03:00,75.2,70.0,30.05,ENE,65,7.0,-999.0,84,-99.99,,,0.00,weatherlink.com 1.10,2013-07-17 11:03:00,
2013-07-17 07:18:00,75.1,70.0,30.06,ENE,59,6.0,-999.0,84,-99.99,,,0.00,weatherlink.com 1.10,2013-07-17 11:18:00,
2013-07-17 07:33:00,75.1,70.0,30.07,ENE,62,7.0,-999.0,84,-99.99,,,0.00,weatherlink.com 1.10,2013-07-17 11:33:00,
2013-07-17 07:48:00,75.3,70.0,30.08,ENE,63,6.0,-999.0,84,-99.99,,,0.00,weatherlink.com 1.10,2013-07-17 11:48:00,
2013-07-17 08:03:00,75.6,71.0,30.08,ENE,61,8.0,-999.0,84,-99.99,,,0.00,weatherlink.com 1.10,2013-07-17 12:03:00,
2013-07-17 08:18:00,75.9,71.0,30.09,ENE,58,0.0,-999.0,84,-99.99,,,0.00,weatherlink.com 1.10,2013-07-17 12:18:00,
2013-07-17 08:33:00,76.3,71.0,30.09,ENE,75,1.0,-999.0,84,-99.99,,,0.00,weatherlink.com 1.10,2013-07-17 12:33:00,
2013-07-17 08:48:00,76.7,71.0,30.09,East,85,2.0,-999.0,83,-99.99,,,0.00,weatherlink.com 1.10,2013-07-17 12:48:00,
2013-07-17 09:03:00,77.4,72.0,30.09,East,98,1.0,-999.0,82,-99.99,,,0.00,weatherlink.com 1.10,2013-07-17 13:03:00,
2013-07-17 09:18:00,78.2,72.0,30.08,East,79,3.0,-999.0,82,-99.99,,,0.00,weatherlink.com 1.10,2013-07-17 13:18:00,
2013-07-17 09:33:00,78.8,73.0,30.08,ENE,78,1.0,-999.0,81,-99.99,,,0.00,weatherlink.com 1.10,2013-07-17 13:33:00,
2013-07-17 09:48:00,79.4,73.0,30.08,ENE,61,3.0,-999.0,81,-99.99,,,0.00,weatherlink.com 1.10,2013-07-17 13:48:00,
2013-07-17 10:03:00,79.8,73.0,30.08,ENE,66,1.0,-999.0,80,-99.99,,,0.01,weatherlink.com 1.10,2013-07-17 14:03:00,
2013-07-17 10:18:00,80.6,74.0,30.08,ENE,69,3.0,-999.0,79,-99.99,,,0.01,weatherlink.com 1.10,2013-07-17 14:18:00,
2013-07-17 10:33:00,81.4,74.0,30.07,ENE,65,5.0,-999.0,77,-99.99,,,0.01,weatherlink.com 1.10,2013-07-17 14:33:00,
2013-07-17 10:49:00,82.2,74.0,30.07,ENE,61,12.0,-999.0,75,-99.99,,,0.01,weatherlink.com 1.10,2013-07-17 14:49:00,
2013-07-17 11:04:00,82.8,74.0,30.07,ENE,71,6.0,-999.0,74,-99.99,,,0.01,weatherlink.com 1.10,2013-07-17 15:04:00,
2013-07-17 11:19:00,83.5,74.0,30.07,East,96,4.0,-999.0,73,-99.99,,,0.01,weatherlink.com 1.10,2013-07-17 15:19:00,
2013-07-17 11:34:00,83.7,74.0,30.07,East,90,2.0,-999.0,72,-99.99,,,0.01,weatherlink.com 1.10,2013-07-17 15:34:00,
2013-07-17 11:49:00,84.3,74.0,30.07,East,96,4.0,-999.0,72,-99.99,,,0.01,weatherlink.com 1.10,2013-07-17 15:49:00,
2013-07-17 12:04:00,84.1,74.0,30.08,ENE,77,2.0,-999.0,72,-99.99,,,0.01,weatherlink.com 1.10,2013-07-17 16:04:00,
2013-07-17 12:19:00,84.7,74.0,30.07,ENE,67,6.0,-999.0,71,-99.99,,,0.01,weatherlink.com 1.10,2013-07-17 16:19:00,
2013-07-17 12:34:00,85.4,74.0,30.07,ENE,70,1.0,-999.0,69,-99.99,,,0.01,weatherlink.com 1.10,2013-07-17 16:34:00,
2013-07-17 12:49:00,85.7,75.0,30.07,ESE,115,5.0,-999.0,70,-99.99,,,0.01,weatherlink.com 1.10,2013-07-17 16:49:00,
2013-07-17 13:04:00,86.2,74.0,30.06,ESE,107,1.0,-999.0,68,-99.99,,,0.01,weatherlink.com 1.10,2013-07-17 17:04:00,
2013-07-17 13:19:00,86.7,75.0,30.06,SE,130,4.0,-999.0,68,-99.99,,,0.01,weatherlink.com 1.10,2013-07-17 17:19:00,
2013-07-17 13:34:00,86.9,74.0,30.05,East,96,6.0,-999.0,66,-99.99,,,0.01,weatherlink.com 1.10,2013-07-17 17:34:00,
2013-07-17 13:49:00,87.4,74.0,30.04,ESE,117,5.0,-999.0,64,-99.99,,,0.01,weatherlink.com 1.10,2013-07-17 17:49:00,
2013-07-17 14:04:00,88.2,75.0,30.04,SE,126,1.0,-999.0,64,-99.99,,,0.01,weatherlink.com 1.10,2013-07-17 18:04:00,
2013-07-17 14:19:00,87.3,75.0,30.04,ENE,73,2.0,-999.0,66,-99.99,,,0.01,weatherlink.com 1.10,2013-07-17 18:19:00,
2013-07-17 14:34:00,87.9,75.0,30.03,East,92,2.0,-999.0,65,-99.99,,,0.01,weatherlink.com 1.10,2013-07-17 18:34:00,
2013-07-17 14:49:00,88.1,76.0,30.02,ENE,67,4.0,-999.0,68,-99.99,,,0.01,weatherlink.com 1.10,2013-07-17 18:49:00,
2013-07-17 15:04:00,88.2,75.0,30.02,ESE,112,11.0,-999.0,64,-99.99,,,0.01,weatherlink.com 1.10,2013-07-17 19:04:00,
2013-07-17 15:19:00,88.6,74.0,30.01,NE,55,7.0,-999.0,63,-99.99,,,0.01,weatherlink.com 1.10,2013-07-17 19:19:00,
2013-07-17 15:34:00,88.6,75.0,30.01,ENE,74,5.0,-999.0,64,-99.99,,,0.01,weatherlink.com 1.10,2013-07-17 19:34:00,
2013-07-17 15:49:00,81.7,73.0,30.05,SSE,153,6.0,-999.0,74,-99.99,,,0.01,weatherlink.com 1.10,2013-07-17 19:49:00,
2013-07-17 16:04:00,75.1,69.0,30.06,SE,126,4.0,-999.0,80,-99.99,,,0.01,weatherlink.com 1.10,2013-07-17 20:04:00,
2013-07-17 16:19:00,72.9,67.0,30.04,SSE,158,4.0,-999.0,82,-99.99,,,0.01,weatherlink.com 1.10,2013-07-17 20:19:00,
2013-07-17 16:34:00,72.6,67.0,30.02,South,171,2.0,-999.0,83,-99.99,,,0.01,weatherlink.com 1.10,2013-07-17 20:34:00,
2013-07-17 16:49:00,72.6,67.0,30.03,ESE,107,1.0,-999.0,83,-99.99,,,0.01,weatherlink.com 1.10,2013-07-17 20:49:00,
2013-07-17 17:04:00,72.8,67.0,30.03,ESE,113,2.0,-999.0,83,-99.99,,,0.01,weatherlink.com 1.10,2013-07-17 21:04:00,
2013-07-17 17:19:00,72.7,68.0,30.02,ESE,114,0.0,-999.0,84,-99.99,,,0.01,weatherlink.com 1.10,2013-07-17 21:19:00,
2013-07-17 17:34:00,72.8,68.0,30.02,ESE,114,0.0,-999.0,84,-99.99,,,0.01,weatherlink.com 1.10,2013-07-17 21:34:00,
2013-07-17 17:49:00,73.3,68.0,30.03,ENE,71,6.0,-999.0,84,-99.99,,,0.01,weatherlink.com 1.10,2013-07-17 21:49:00,
2013-07-17 18:04:00,74.0,69.0,30.03,ENE,65,3.0,-999.0,83,-99.99,,,0.01,weatherlink.com 1.10,2013-07-17 22:04:00,
2013-07-17 18:19:00,73.9,69.0,30.02,ENE,67,2.0,-999.0,83,-99.99,,,0.01,weatherlink.com 1.10,2013-07-17 22:19:00,
2013-07-17 18:34:00,73.9,69.0,30.02,ENE,70,0.0,-999.0,83,-99.99,,,0.01,weatherlink.com 1.10,2013-07-17 22:34:00,
2013-07-17 18:49:00,74.0,69.0,30.02,ENE,73,2.0,-999.0,83,-99.99,,,0.01,weatherlink.com 1.10,2013-07-17 22:49:00,
2013-07-17 19:04:00,74.1,69.0,30.02,ENE,69,1.0,-999.0,83,-99.99,,,0.01,weatherlink.com 1.10,2013-07-17 23:04:00,
2013-07-17 19:19:00,74.4,69.0,30.03,ENE,66,6.0,-999.0,83,-99.99,,,0.01,weatherlink.com 1.10,2013-07-17 23:19:00,
2013-07-17 19:34:00,74.7,69.0,30.03,ENE,67,1.0,-999.0,83,-99.99,,,0.01,weatherlink.com 1.10,2013-07-17 23:34:00,
2013-07-17 19:49:00,74.6,69.0,30.03,SSE,149,0.0,-999.0,83,-99.99,,,0.01,weatherlink.com 1.10,2013-07-17 23:49:00,
2013-07-17 20:04:00,74.6,69.0,30.03,ENE,76,1.0,-999.0,83,-99.99,,,0.01,weatherlink.com 1.10,2013-07-18 00:04:00,
2013-07-17 20:19:00,74.7,69.0,30.03,ENE,76,3.0,-999.0,83,-99.99,,,0.01,weatherlink.com 1.10,2013-07-18 00:19:00,
2013-07-17 20:34:00,74.8,69.0,30.04,ENE,66,1.0,-999.0,83,-99.99,,,0.01,weatherlink.com 1.10,2013-07-18 00:34:00,
2013-07-17 20:49:00,74.8,69.0,30.04,East,94,1.0,-999.0,83,-99.99,,,0.01,weatherlink.com 1.10,2013-07-18 00:49:00,
2013-07-17 21:04:00,74.8,69.0,30.04,East,96,0.0,-999.0,83,-99.99,,,0.01,weatherlink.com 1.10,2013-07-18 01:04:00,
2013-07-17 21:19:00,74.7,69.0,30.04,East,101,1.0,-999.0,83,-99.99,,,0.01,weatherlink.com 1.10,2013-07-18 01:19:00,
2013-07-17 21:35:00,74.7,70.0,30.04,East,101,1.0,-999.0,84,-99.99,,,0.01,weatherlink.com 1.10,2013-07-18 01:35:00,
2013-07-17 21:49:00,74.8,70.0,30.04,ENE,76,0.0,-999.0,84,-99.99,,,0.01,weatherlink.com 1.10,2013-07-18 01:49:00,
2013-07-17 22:04:00,74.8,70.0,30.04,ESE,105,0.0,-999.0,84,-99.99,,,0.01,weatherlink.com 1.10,2013-07-18 02:04:00,
2013-07-17 22:19:00,74.8,70.0,30.04,ESE,113,0.0,-999.0,84,-99.99,,,0.01,weatherlink.com 1.10,2013-07-18 02:19:00,
2013-07-17 22:34:00,74.8,70.0,30.04,ESE,113,0.0,-999.0,84,-99.99,,,0.01,weatherlink.com 1.10,2013-07-18 02:34:00,
2013-07-17 22:49:00,74.9,70.0,30.04,ESE,113,0.0,-999.0,84,-99.99,,,0.01,weatherlink.com 1.10,2013-07-18 02:49:00,
2013-07-17 23:04:00,75.2,70.0,30.05,ENE,75,0.0,-999.0,84,-99.99,,,0.01,weatherlink.com 1.10,2013-07-18 03:04:00,
2013-07-17 23:19:00,75.2,70.0,30.05,ENE,74,2.0,-999.0,84,-99.99,,,0.01,weatherlink.com 1.10,2013-07-18 03:19:00,
2013-07-17 23:34:00,75.1,70.0,30.05,ENE,65,2.0,-999.0,84,-99.99,,,0.01,weatherlink.com 1.10,2013-07-18 03:34:00,
2013-07-17 23:49:00,74.9,70.0,30.05,ENE,74,0.0,-999.0,84,-99.99,,,0.01,weatherlink.com 1.10,2013-07-18 03:49:00,